When you browse on this site, cookies collect data to enhance your experience and personalize the content and advertising you see.
Visit our Privacy Policy to learn more. By continuing to use the site, you agree to this use of cookies and data.
  • In Hungary
  • List of Countries
  • For 7 days
  • Water Temperature
  • Weather Map
  • News
  • Weather Widgets
  • user-avatar
    Login

    Hourly Weather Salzwedel

    Today, 10 December, Tuesday

    Time Temperature Precipitation Wind Pressure Humidity
    00:00 +2°C° 0 mm 5 mps 756 mmHg 78%
    01:00 +2°C° 0 mm 5 mps 757 mmHg 79%
    02:00 +2°C° 0 mm 5 mps 758 mmHg 81%
    03:00 +3°C° 0 mm 4 mps 759 mmHg 82%
    04:00 +1°C° 0 mm 4 mps 760 mmHg 83%
    05:00 +1°C° 0 mm 4 mps 760 mmHg 85%
    06:00 +1°C° 0 mm 4 mps 761 mmHg 87%
    07:00 0°C° 0 mm 4 mps 762 mmHg 89%
    08:00 +2°C° 0 mm 3 mps 763 mmHg 89%
    09:00 +2°C° 0 mm 3 mps 763 mmHg 88%
    10:00 +2°C° 0 mm 3 mps 764 mmHg 87%
    11:00 +3°C° 0 mm 3 mps 764 mmHg 84%
    12:00 +3°C° 0 mm 3 mps 764 mmHg 81%
    13:00 +4°C° 0 mm 3 mps 764 mmHg 77%
    14:00 +3°C° 0 mm 3 mps 764 mmHg 80%
    15:00 +3°C° 0 mm 3 mps 764 mmHg 82%
    16:00 +2°C° 0 mm 3 mps 763 mmHg 85%
    17:00 +2°C° 0 mm 3 mps 763 mmHg 84%
    18:00 +1°C° 0 mm 4 mps 763 mmHg 84%
    19:00 0°C° 0 mm 4 mps 762 mmHg 83%
    20:00 0°C° 0 mm 4 mps 762 mmHg 82%
    21:00 0°C° 0 mm 5 mps 761 mmHg 81%
    22:00 0°C° 0 mm 5 mps 760 mmHg 80%
    23:00 0°C° 0 mm 5 mps 759 mmHg 78%

    Tomorrow, 11 December, Wednesday

    Time Temperature Precipitation Wind Pressure Humidity
    00:00 0°C° 0 mm 5 mps 759 mmHg 76%
    01:00 +1°C° 0 mm 6 mps 758 mmHg 74%
    02:00 +1°C° 0.1 mm 6 mps 757 mmHg 72%
    03:00 +1°C° 0.1 mm 6 mps 756 mmHg 70%
    04:00 +1°C° 0.1 mm 6 mps 755 mmHg 69%
    05:00 +2°C° 0.7 mm 5 mps 755 mmHg 74%
    06:00 +2°C° 0.7 mm 5 mps 755 mmHg 78%
    07:00 +2°C° 0.7 mm 5 mps 755 mmHg 83%
    08:00 +3°C° 0.3 mm 4 mps 755 mmHg 84%
    09:00 +3°C° 0.3 mm 4 mps 754 mmHg 85%
    10:00 +3°C° 0.3 mm 4 mps 754 mmHg 85%
    11:00 +3°C° 0.4 mm 4 mps 754 mmHg 87%
    12:00 +3°C° 0.4 mm 3 mps 753 mmHg 89%
    13:00 +3°C° 0.4 mm 3 mps 753 mmHg 92%
    14:00 +3°C° 0.6 mm 3 mps 753 mmHg 93%
    15:00 +3°C° 0.6 mm 3 mps 752 mmHg 93%
    16:00 +4°C° 0.6 mm 2 mps 752 mmHg 94%
    17:00 +4°C° 0.3 mm 2 mps 751 mmHg 94%
    18:00 +4°C° 0.3 mm 2 mps 751 mmHg 94%
    19:00 +4°C° 0.3 mm 2 mps 751 mmHg 94%
    20:00 +4°C° 0.3 mm 2 mps 751 mmHg 94%
    21:00 +4°C° 0.3 mm 2 mps 751 mmHg 94%
    22:00 +3°C° 0.3 mm 3 mps 751 mmHg 94%
    23:00 +4°C° 0 mm 2 mps 750 mmHg 94%

    Day after tomorrow, 12 December, Thursday

    Time Temperature Precipitation Wind Pressure Humidity
    00:00 +4°C° 0 mm 2 mps 750 mmHg 94%
    01:00 +4°C° 0 mm 2 mps 750 mmHg 94%
    02:00 +4°C° 0 mm 2 mps 750 mmHg 94%
    03:00 +4°C° 0 mm 2 mps 749 mmHg 95%
    04:00 +3°C° 0 mm 2 mps 749 mmHg 95%
    05:00 +3°C° 0 mm 2 mps 749 mmHg 94%
    06:00 +3°C° 0 mm 2 mps 749 mmHg 94%
    07:00 +3°C° 0 mm 2 mps 749 mmHg 93%
    08:00 +3°C° 0 mm 2 mps 749 mmHg 92%
    09:00 +2°C° 0 mm 3 mps 748 mmHg 90%
    10:00 +2°C° 0 mm 3 mps 748 mmHg 89%
    11:00 +2°C° 0 mm 3 mps 748 mmHg 88%
    12:00 +3°C° 0 mm 3 mps 748 mmHg 88%
    13:00 +3°C° 0 mm 3 mps 748 mmHg 88%
    14:00 +3°C° 0.2 mm 4 mps 747 mmHg 90%
    15:00 +3°C° 0.2 mm 4 mps 747 mmHg 92%
    16:00 +1°C° 0.2 mm 4 mps 746 mmHg 94%
    17:00 +1°C° 0.1 mm 4 mps 746 mmHg 92%
    18:00 +2°C° 0.1 mm 3 mps 746 mmHg 90%
    19:00 +1°C° 0.1 mm 3 mps 745 mmHg 88%
    20:00 +1°C° 0 mm 3 mps 744 mmHg 87%
    21:00 0°C° 0 mm 3 mps 744 mmHg 86%
    22:00 0°C° 0 mm 3 mps 743 mmHg 86%
    23:00 -2°C° 0 mm 4 mps 742 mmHg 85%

    13 December, Friday

    Time Temperature Precipitation Wind Pressure Humidity
    00:00 -2°C° 0 mm 5 mps 740 mmHg 84%
    01:00 -2°C° 0 mm 5 mps 739 mmHg 83%
    02:00 -3°C° 0.1 mm 6 mps 738 mmHg 84%
    03:00 -2°C° 0.1 mm 7 mps 736 mmHg 85%
    04:00 -2°C° 0.1 mm 8 mps 734 mmHg 86%
    05:00 -2°C° 0.8 mm 8 mps 734 mmHg 89%
    06:00 -2°C° 0.8 mm 8 mps 733 mmHg 91%
    07:00 -4°C° 0.8 mm 8 mps 732 mmHg 94%
    08:00 -2°C° 0.9 mm 8 mps 732 mmHg 92%
    09:00 -1°C° 0.9 mm 7 mps 732 mmHg 90%
    10:00 -1°C° 0.9 mm 7 mps 731 mmHg 88%
    11:00 +1°C° 0 mm 6 mps 731 mmHg 87%
    12:00 +3°C° 0 mm 4 mps 732 mmHg 86%
    13:00 +4°C° 0 mm 3 mps 732 mmHg 85%
    14:00 +3°C° 0 mm 4 mps 732 mmHg 86%
    15:00 +3°C° 0 mm 4 mps 732 mmHg 87%
    16:00 +3°C° 0 mm 4 mps 732 mmHg 88%
    17:00 +1°C° 0 mm 4 mps 732 mmHg 88%
    18:00 +1°C° 0 mm 4 mps 732 mmHg 89%
    19:00 +1°C° 0 mm 4 mps 732 mmHg 90%
    20:00 +1°C° 0 mm 4 mps 733 mmHg 91%
    21:00 +1°C° 0 mm 3 mps 733 mmHg 92%
    22:00 +1°C° 0 mm 3 mps 733 mmHg 93%
    23:00 +2°C° 0.1 mm 2 mps 733 mmHg 94%

    14 December, Saturday

    Time Temperature Precipitation Wind Pressure Humidity
    00:00 +3°C° 0.1 mm 2 mps 733 mmHg 96%
    01:00 +4°C° 0.1 mm 1 mps 733 mmHg 98%
    02:00 +3°C° 0.1 mm 2 mps 734 mmHg 97%
    03:00 +2°C° 0.1 mm 3 mps 734 mmHg 96%
    04:00 +3°C° 0.1 mm 4 mps 734 mmHg 95%
    05:00 +3°C° 0.1 mm 4 mps 734 mmHg 93%
    06:00 +3°C° 0.1 mm 5 mps 735 mmHg 91%
    07:00 +3°C° 0.1 mm 5 mps 735 mmHg 89%
    08:00 +3°C° 0.2 mm 6 mps 735 mmHg 89%
    09:00 +3°C° 0.2 mm 6 mps 734 mmHg 88%
    10:00 +3°C° 0.2 mm 7 mps 734 mmHg 88%
    11:00 +3°C° 0.6 mm 7 mps 733 mmHg 85%
    12:00 +4°C° 0.6 mm 8 mps 733 mmHg 81%
    13:00 +3°C° 0.6 mm 9 mps 733 mmHg 78%
    14:00 +3°C° 0 mm 9 mps 733 mmHg 73%
    15:00 +2°C° 0 mm 8 mps 734 mmHg 68%
    16:00 +3°C° 0 mm 7 mps 734 mmHg 63%
    17:00 +2°C° 0 mm 8 mps 735 mmHg 63%
    18:00 +1°C° 0 mm 8 mps 736 mmHg 64%
    19:00 +1°C° 0 mm 8 mps 737 mmHg 64%
    20:00 +1°C° 0.1 mm 8 mps 738 mmHg 66%
    21:00 +1°C° 0.1 mm 8 mps 739 mmHg 68%
    22:00 +1°C° 0.1 mm 9 mps 740 mmHg 70%
    23:00 +1°C° 0 mm 9 mps 741 mmHg 69%

    15 December, Sunday

    Time Temperature Precipitation Wind Pressure Humidity
    00:00 +1°C° 0 mm 9 mps 742 mmHg 69%
    01:00 +1°C° 0 mm 8 mps 743 mmHg 68%
    02:00 +1°C° 0 mm 8 mps 743 mmHg 70%
    03:00 +1°C° 0 mm 8 mps 744 mmHg 71%
    04:00 +2°C° 0 mm 7 mps 745 mmHg 73%
    05:00 0°C° 0 mm 7 mps 745 mmHg 74%
    06:00 +1°C° 0 mm 6 mps 745 mmHg 76%
    07:00 +1°C° 0 mm 5 mps 746 mmHg 77%
    08:00 +1°C° 0 mm 5 mps 746 mmHg 78%
    09:00 +1°C° 0 mm 4 mps 745 mmHg 79%
    10:00 +1°C° 0 mm 4 mps 745 mmHg 80%
    11:00 +2°C° 0.7 mm 5 mps 744 mmHg 82%
    12:00 +3°C° 0.7 mm 5 mps 743 mmHg 85%
    13:00 +4°C° 0.7 mm 6 mps 742 mmHg 87%
    14:00 +4°C° 0.4 mm 6 mps 743 mmHg 83%
    15:00 +4°C° 0.4 mm 6 mps 744 mmHg 78%
    16:00 +3°C° 0.4 mm 6 mps 744 mmHg 74%
    17:00 +3°C° 0 mm 7 mps 745 mmHg 76%
    18:00 +2°C° 0 mm 8 mps 746 mmHg 78%
    19:00 +2°C° 0 mm 9 mps 747 mmHg 80%
    20:00 +2°C° 0 mm 8 mps 748 mmHg 78%
    21:00 +2°C° 0 mm 8 mps 750 mmHg 76%
    22:00 +3°C° 0 mm 7 mps 751 mmHg 74%
    23:00 +2°C° 0 mm 6 mps 752 mmHg 77%
    Show more